{"data":{"norad_id":40275,"epoch":"2026-09-20T04:09:33.956352Z","epoch_age_seconds":42991,"freshness":"FRESH","line1":"1 40275U 14063A   26263.17330968 -.00000018  00000+0  77057-4 0  9997","line2":"2 40275 100.7871  56.0883 0006109 341.5539  18.5350 13.15533442572300","mean_motion":13.15533442,"eccentricity":0.0006109,"inclination_deg":100.7871,"raan_deg":56.0883,"arg_perigee_deg":341.5539,"mean_anomaly_deg":18.535,"bstar":7.7057e-5,"rev_number":57230,"period_min":109.46129942624,"perigee_km":1197.1981996067,"apogee_km":1206.4594018221,"semimajor_km":7579.9658007144,"source":"CELESTRAK","updated_at":"2026-09-20T09:00:33.962312Z"}}